{"data":{"norad_id":69202,"epoch":"2026-09-19T22:49:42.878208Z","epoch_age_seconds":74340,"freshness":"FRESH","line1":"1 69202U 26114W   26262.95119072  .00011441  00000+0  34918-3 0  9993","line2":"2 69202  53.1569 116.1468 0001031  90.1995 269.9125 15.34404255 19361","mean_motion":15.34404255,"eccentricity":0.0001031,"inclination_deg":53.1569,"raan_deg":116.1468,"arg_perigee_deg":90.1995,"mean_anomaly_deg":269.9125,"bstar":0.00034918,"rev_number":1936,"period_min":93.847497835569,"perigee_km":461.98530415474,"apogee_km":463.39588280452,"semimajor_km":6840.8275934796,"source":"CELESTRAK","updated_at":"2026-09-20T09:00:44.099678Z"}}